Weather History for Greenville, TX

Change the Weather History Date:

Sunday, July 28, 2013

  Actual Average Record
Temperature  
Mean Temperature 78 °F -  
Max Temperature 91 °F 93 °F 104 °F (1998)
Min Temperature 64 °F 76 °F 64 °F (2013)
Cooling Degree Days 12    
Growing Degree Days 28 (Base 50)    
Moisture  
Dew Point 64 °F    
Average Humidity 63    
Maximum Humidity 94    
Minimum Humidity 36    
Precipitation  
Precipitation 0.00 in - - ()
Sea Level Pressure  
Sea Level Pressure 29.97 in    
Wind  
Wind Speed 3 mph (SE)    
Max Wind Speed 14 mph    
Max Gust Speed 17 mph    
Visibility 10 miles    
Events      
Averages and records for this station are not official NWS values.
T = Trace of Precipitation, MM = Missing Value Source: NWS Daily Summary

Daily Weather History Graph

Daily Weather History Graph

Search for Another Location

Airport:

Trip Planner

Search our weather history database for the weather conditions in past years. The results will help you decide how hot, cold, wet, or windy it might be!

Date:

Astronomy

Jul. 28, 2013 Rise Set
Actual Time 6:34 AM CDT 8:26 PM CDT
Civil Twilight 6:07 AM CDT 8:53 PM CDT
Nautical Twilight 5:34 AM CDT 9:26 PM CDT
Astronomical Twilight 4:59 AM CDT 10:01 PM CDT
Moon No Moon Rise 12:53 PM CDT (7/28)
Length of Visible Light 14h 45m
Length of Day
13h 51m
Waning Gibbous, 60% of the Moon is Illuminated
Jul 28
Waning Gibbous
Jul 29
Last Quarter
Aug 6
New
Aug 14
First Quarter
Aug 20
Full

Hourly Weather History & Observations

Time (CDT) Temp. Heat Index Dew Point Humidity Pressure Visibility Wind Dir Wind Speed Gust Speed Precip Events Conditions
12:15 AM 71.6 °F - 64.4 °F 78% 29.97 in - Calm Calm - N/A   Clear
12:35 AM 71.6 °F - 64.4 °F 78% 29.98 in - Calm Calm - N/A   Clear
12:55 AM 71.6 °F - 64.4 °F 78% 29.98 in - Calm Calm - N/A   Clear
1:15 AM 69.8 °F - 64.4 °F 83% 29.98 in 10.0 mi Calm Calm - N/A   Clear
1:35 AM 69.8 °F - 64.4 °F 83% 29.97 in 10.0 mi Calm Calm - N/A   Clear
1:55 AM 68.0 °F - 64.4 °F 88% 29.97 in 10.0 mi Calm Calm - N/A   Clear
2:15 AM 68.0 °F - 64.4 °F 88% 29.97 in 10.0 mi Calm Calm - N/A   Clear
2:35 AM 68.0 °F - 64.4 °F 88% 29.97 in 10.0 mi Calm Calm - N/A   Clear
2:55 AM 68.0 °F - 64.4 °F 88% 29.96 in 10.0 mi Calm Calm - N/A   Clear
3:15 AM 68.0 °F - 64.4 °F 88% 29.97 in 10.0 mi Calm Calm - N/A   Clear
3:35 AM 68.0 °F - 64.4 °F 88% 29.97 in 10.0 mi Calm Calm - N/A   Clear
3:55 AM 64.4 °F - 62.6 °F 94% 29.96 in 10.0 mi Calm Calm - N/A   Clear
4:15 AM 64.4 °F - 60.8 °F 88% 29.95 in 10.0 mi Calm Calm - N/A   Clear
4:35 AM 68.0 °F - 62.6 °F 83% 29.96 in 10.0 mi Calm Calm - N/A   Clear
4:55 AM 64.4 °F - 62.6 °F 94% 29.96 in 10.0 mi Calm Calm - N/A   Clear
5:15 AM 64.4 °F - 62.6 °F 94% 29.96 in 10.0 mi Calm Calm - N/A   Clear
5:35 AM 64.4 °F - 62.6 °F 94% 29.97 in 10.0 mi Calm Calm - N/A   Clear
5:55 AM 64.4 °F - 62.6 °F 94% 29.97 in 10.0 mi Calm Calm - N/A   Clear
6:15 AM 64.4 °F - 60.8 °F 88% 29.97 in 10.0 mi Calm Calm - N/A   Clear
6:35 AM 64.4 °F - 62.6 °F 94% 29.98 in 10.0 mi Calm Calm - N/A   Clear
6:55 AM 64.4 °F - 62.6 °F 94% 29.99 in 10.0 mi Calm Calm - N/A   Clear
7:15 AM 68.0 °F - 64.4 °F 88% 30.00 in 10.0 mi Calm Calm - N/A   Clear
7:35 AM 69.8 °F - 64.4 °F 83% 30.00 in 10.0 mi Calm Calm - N/A   Clear
7:55 AM 71.6 °F - 66.2 °F 83% 30.00 in 10.0 mi Calm Calm - N/A   Clear
8:15 AM 71.6 °F - 66.2 °F 83% 30.01 in 10.0 mi Calm Calm - N/A   Clear
8:35 AM 73.4 °F - 68.0 °F 83% 30.01 in 10.0 mi Calm Calm - N/A   Clear
8:55 AM 75.2 °F - 68.0 °F 78% 30.01 in 10.0 mi SE 3.5 mph - N/A   Clear
9:15 AM 77.0 °F - 68.0 °F 74% 30.02 in 10.0 mi SE 3.5 mph - N/A   Clear
9:35 AM 78.8 °F - 68.0 °F 69% 30.01 in 10.0 mi SSE 9.2 mph - N/A   Clear
9:55 AM 78.8 °F - 64.4 °F 61% 30.01 in 10.0 mi SSE 8.1 mph - N/A   Clear
10:15 AM 80.6 °F 82.3 °F 64.4 °F 58% 30.00 in 10.0 mi South 8.1 mph - N/A   Scattered Clouds
10:35 AM 80.6 °F 82.3 °F 64.4 °F 58% 30.00 in 10.0 mi South 6.9 mph - N/A   Scattered Clouds
10:55 AM 82.4 °F 83.9 °F 64.4 °F 54% 30.01 in 10.0 mi SSE 8.1 mph - N/A   Scattered Clouds
11:15 AM 82.4 °F 83.4 °F 62.6 °F 51% 30.01 in 10.0 mi South 4.6 mph - N/A   Scattered Clouds
11:35 AM 86.0 °F 86.6 °F 62.6 °F 45% 30.00 in 10.0 mi Calm Calm - N/A   Scattered Clouds
11:55 AM 84.2 °F 85.0 °F 62.6 °F 48% 30.00 in 10.0 mi SSE 8.1 mph - N/A   Clear
12:15 PM 86.0 °F 86.6 °F 62.6 °F 45% 29.99 in 10.0 mi SE 8.1 mph - N/A   Clear
12:35 PM 87.8 °F 88.5 °F 62.6 °F 43% 29.99 in 10.0 mi East 6.9 mph - N/A   Clear
12:55 PM 87.8 °F 88.5 °F 62.6 °F 43% 29.99 in 10.0 mi East 9.2 mph - N/A   Scattered Clouds
1:15 PM 87.8 °F 88.5 °F 62.6 °F 43% 29.98 in 10.0 mi ESE 10.4 mph - N/A   Scattered Clouds
1:35 PM 87.8 °F 88.5 °F 62.6 °F 43% 29.97 in 10.0 mi East 9.2 mph - N/A   Scattered Clouds
1:55 PM 87.8 °F 88.5 °F 62.6 °F 43% 29.97 in 10.0 mi ESE 12.7 mph 16.1 mph N/A   Clear
2:15 PM 89.6 °F 90.1 °F 62.6 °F 40% 29.97 in 10.0 mi East 9.2 mph 16.1 mph N/A   Clear
2:35 PM 89.6 °F 90.1 °F 62.6 °F 40% 29.97 in 10.0 mi ESE 5.8 mph 16.1 mph N/A   Scattered Clouds
2:55 PM 91.4 °F 92.1 °F 62.6 °F 38% 29.96 in 10.0 mi SE 11.5 mph 16.1 mph N/A   Scattered Clouds
3:15 PM 91.4 °F 92.1 °F 62.6 °F 38% 29.96 in 10.0 mi SE 5.8 mph - N/A   Mostly Cloudy
3:35 PM 91.4 °F 93.2 °F 64.4 °F 41% 29.95 in 10.0 mi SSE 12.7 mph 16.1 mph N/A   Scattered Clouds
3:55 PM 91.4 °F 92.1 °F 62.6 °F 38% 29.94 in 10.0 mi SSE 13.8 mph - N/A   Scattered Clouds
4:15 PM 91.4 °F 92.1 °F 62.6 °F 38% 29.93 in 10.0 mi SSE 9.2 mph - N/A   Scattered Clouds
4:35 PM 91.4 °F 91.4 °F 60.8 °F 36% 29.93 in 10.0 mi South 4.6 mph - N/A   Scattered Clouds
4:55 PM 91.4 °F 91.4 °F 60.8 °F 36% 29.93 in 10.0 mi SSE 9.2 mph 17.3 mph N/A   Scattered Clouds
5:15 PM 91.4 °F 92.1 °F 62.6 °F 38% 29.92 in 10.0 mi ESE 8.1 mph - N/A   Clear
5:35 PM 91.4 °F 91.4 °F 60.8 °F 36% 29.91 in 10.0 mi SSE 8.1 mph - N/A   Clear
5:55 PM 91.4 °F 92.1 °F 62.6 °F 38% 29.91 in 10.0 mi ESE 8.1 mph - N/A   Clear
6:15 PM 91.4 °F 91.4 °F 60.8 °F 36% 29.91 in 10.0 mi SE 9.2 mph - N/A   Scattered Clouds
6:35 PM 91.4 °F 92.1 °F 62.6 °F 38% 29.90 in 10.0 mi East 10.4 mph - N/A   Clear
6:55 PM 89.6 °F 90.1 °F 62.6 °F 40% 29.90 in 10.0 mi ESE 9.2 mph - N/A   Clear
7:15 PM 89.6 °F 90.1 °F 62.6 °F 40% 29.91 in 10.0 mi East 6.9 mph - N/A   Clear
7:35 PM 89.6 °F 90.1 °F 62.6 °F 40% 29.91 in 10.0 mi SE 9.2 mph - N/A   Clear
7:55 PM 87.8 °F 89.4 °F 64.4 °F 46% 29.92 in 10.0 mi ESE 4.6 mph - N/A   Clear
8:15 PM 86.0 °F 87.3 °F 64.4 °F 48% 29.93 in 10.0 mi Calm Calm - N/A   Clear
8:35 PM 84.2 °F 85.6 °F 64.4 °F 51% 29.93 in 10.0 mi Calm Calm - N/A   Clear
8:55 PM 82.4 °F 83.9 °F 64.4 °F 54% 29.93 in 10.0 mi Calm Calm - N/A   Clear
9:15 PM 82.4 °F 84.6 °F 66.2 °F 58% 29.94 in 10.0 mi Calm Calm - N/A   Clear
9:35 PM 80.6 °F 82.7 °F 66.2 °F 61% 29.94 in 10.0 mi Calm Calm - N/A   Clear
9:55 PM 78.8 °F - 66.2 °F 65% 29.94 in 10.0 mi Calm Calm - N/A   Clear
10:15 PM 78.8 °F - 68.0 °F 69% 29.96 in 10.0 mi Calm Calm - N/A   Clear
10:35 PM 78.8 °F - 68.0 °F 69% 29.96 in 10.0 mi East 3.5 mph - N/A   Scattered Clouds
10:55 PM 78.8 °F - 68.0 °F 69% 29.97 in 10.0 mi Calm Calm - N/A   Scattered Clouds
11:15 PM 78.8 °F - 68.0 °F 69% 29.97 in 10.0 mi East 4.6 mph - N/A   Mostly Cloudy
11:35 PM 80.6 °F 83.2 °F 68.0 °F 65% 29.97 in 10.0 mi Calm Calm - N/A   Overcast
11:55 PM 80.6 °F 83.2 °F 68.0 °F 65% 29.97 in 10.0 mi ESE 6.9 mph - N/A   Mostly Cloudy